| time (UTC) | temp F | wind direction | speed MPH | gust MPH | rain 1hr in | rain 24hr in | rain mn in | humidity % | barometer mb |
| 20260831103044 | 64 | 1 | 0.0 | 0.0 | 0.00 | 0.65 | 0.00 | 95 | 1017.4 |
| 20260831102542 | 64 | 1 | 0.0 | 0.0 | 0.00 | 0.65 | 0.00 | 95 | 1017.3 |
| 20260831102042 | 64 | 1 | 0.0 | 0.0 | 0.00 | 0.65 | 0.00 | 95 | 1017.3 |
| 20260831101543 | 65 | 1 | 0.0 | 0.0 | 0.00 | 0.65 | 0.00 | 95 | 1017.3 |
| 20260831101041 | 65 | 1 | 0.0 | 0.0 | 0.00 | 0.65 | 0.00 | 95 | 1017.2 |
| 20260831100540 | 65 | 1 | 0.0 | 0.0 | 0.00 | 0.65 | 0.00 | 95 | 1017.1 |
| 20260831100050 | 65 | 1 | 0.0 | 0.0 | 0.00 | 0.65 | 0.00 | 95 | 1017.0 |
| 20260831095537 | 65 | 1 | 0.0 | 0.0 | 0.00 | 0.65 | 0.00 | 95 | 1016.9 |
| 20260831095036 | 65 | 1 | 0.0 | 2.0 | 0.00 | 0.65 | 0.00 | 95 | 1016.8 |
| 20260831094540 | 65 | 1 | 0.0 | 2.0 | 0.00 | 0.65 | 0.00 | 95 | 1016.7 |
| 20260831094038 | 65 | 2 | 0.0 | 0.0 | 0.00 | 0.65 | 0.00 | 95 | 1016.7 |
| 20260831093536 | 65 | 359 | 0.0 | 2.0 | 0.00 | 0.65 | 0.00 | 95 | 1016.8 |
| 20260831093037 | 65 | 6 | 0.0 | 2.0 | 0.00 | 0.65 | 0.00 | 95 | 1016.7 |
| 20260831092535 | 65 | 359 | 0.0 | 0.0 | 0.00 | 0.65 | 0.00 | 96 | 1016.6 |
| 20260831092036 | 65 | 358 | 0.0 | 0.0 | 0.00 | 0.65 | 0.00 | 96 | 1016.6 |
| 20260831091536 | 65 | 358 | 0.0 | 0.0 | 0.00 | 0.65 | 0.00 | 96 | 1016.5 |
| 20260831091035 | 65 | 153 | 0.0 | 0.0 | 0.00 | 0.65 | 0.00 | 96 | 1016.4 |
| 20260831090535 | 65 | 153 | 0.0 | 0.0 | 0.00 | 0.65 | 0.00 | 97 | 1016.4 |
| 20260831090033 | 65 | 153 | 0.0 | 0.0 | 0.00 | 0.65 | 0.00 | 96 | 1016.6 |
| 20260831085533 | 65 | 153 | 0.0 | 0.0 | 0.00 | 0.65 | 0.00 | 96 | 1016.5 |
| 20260831085033 | 65 | 153 | 0.0 | 0.0 | 0.00 | 0.65 | 0.00 | 96 | 1016.4 |
| 20260831084539 | 65 | 153 | 0.0 | 0.0 | 0.00 | 0.65 | 0.00 | 96 | 1016.5 |
| 20260831084031 | 65 | 153 | 0.0 | 0.0 | 0.00 | 0.65 | 0.00 | 96 | 1016.5 |
| 20260831083529 | 65 | 153 | 0.0 | 0.0 | 0.00 | 0.65 | 0.00 | 96 | 1016.4 |
| 20260831083040 | 65 | 153 | 0.0 | 0.0 | 0.00 | 0.65 | 0.00 | 96 | 1016.4 |
| 20260831082529 | 65 | 153 | 0.0 | 0.0 | 0.00 | 0.65 | 0.00 | 96 | 1016.5 |
| 20260831082028 | 66 | 153 | 0.0 | 0.0 | 0.00 | 0.65 | 0.00 | 96 | 1016.4 |
| 20260831081528 | 66 | 153 | 0.0 | 0.0 | 0.00 | 0.65 | 0.00 | 97 | 1016.3 |
| 20260831081027 | 66 | 153 | 0.0 | 0.0 | 0.00 | 0.65 | 0.00 | 96 | 1016.3 |
| 20260831080527 | 66 | 153 | 0.0 | 0.0 | 0.00 | 0.65 | 0.00 | 96 | 1016.3 |
| 20260831080037 | 66 | 153 | 0.0 | 0.0 | 0.00 | 0.65 | 0.00 | 96 | 1016.2 |
| 20260831075524 | 66 | 153 | 0.0 | 0.0 | 0.00 | 0.65 | 0.00 | 96 | 1016.2 |
| 20260831075024 | 66 | 153 | 0.0 | 0.0 | 0.00 | 0.65 | 0.00 | 96 | 1016.2 |
| 20260831074524 | 66 | 153 | 0.0 | 0.0 | 0.00 | 0.65 | 0.00 | 96 | 1016.1 |
| 20260831074027 | 66 | 153 | 0.0 | 0.0 | 0.00 | 0.65 | 0.00 | 96 | 1016.1 |
| 20260831073523 | 66 | 153 | 0.0 | 0.0 | 0.00 | 0.65 | 0.00 | 96 | 1016.1 |
| 20260831073026 | 67 | 153 | 0.0 | 0.0 | 0.00 | 0.65 | 0.00 | 96 | 1016.0 |
| 20260831072521 | 67 | 153 | 0.0 | 0.0 | 0.00 | 0.65 | 0.00 | 97 | 1016.1 |
| 20260831072021 | 67 | 153 | 0.0 | 0.0 | 0.00 | 0.65 | 0.00 | 96 | 1016.0 |
| 20260831071520 | 67 | 154 | 0.0 | 0.0 | 0.00 | 0.65 | 0.00 | 96 | 1016.0 |
| 20260831071019 | 67 | 154 | 0.0 | 0.0 | 0.00 | 0.65 | 0.00 | 96 | 1016.0 |
| 20260831070519 | 67 | 154 | 0.0 | 0.0 | 0.00 | 0.65 | 0.00 | 97 | 1015.9 |
| 20260831070018 | 67 | 154 | 0.0 | 0.0 | 0.00 | 0.65 | 0.00 | 96 | 1015.9 |
| 20260831065521 | 67 | 154 | 0.0 | 0.0 | 0.00 | 0.65 | 0.00 | 96 | 1015.8 |
| 20260831065016 | 68 | 154 | 0.0 | 0.0 | 0.00 | 0.65 | 0.00 | 96 | 1015.8 |
| 20260831064515 | 68 | 154 | 0.0 | 0.0 | 0.00 | 0.65 | 0.00 | 96 | 1015.8 |
| 20260831064014 | 68 | 154 | 0.0 | 0.0 | 0.00 | 0.65 | 0.00 | 97 | 1015.8 |
| 20260831063513 | 68 | 154 | 0.0 | 0.0 | 0.00 | 0.65 | 0.00 | 97 | 1015.7 |
| 20260831063013 | 68 | 154 | 0.0 | 0.0 | 0.00 | 0.65 | 0.00 | 97 | 1015.7 |
| 20260831062512 | 68 | 154 | 0.0 | 0.0 | 0.00 | 0.65 | 0.00 | 97 | 1015.8 |
| 20260831062012 | 68 | 154 | 0.0 | 0.0 | 0.00 | 0.65 | 0.00 | 97 | 1015.7 |
| 20260831061511 | 68 | 154 | 0.0 | 0.0 | 0.00 | 0.65 | 0.00 | 97 | 1015.7 |
| 20260831061010 | 68 | 154 | 0.0 | 0.0 | 0.00 | 0.65 | 0.00 | 97 | 1015.7 |
| 20260831060510 | 68 | 154 | 0.0 | 0.0 | 0.00 | 0.65 | 0.00 | 96 | 1015.7 |
| 20260831060008 | 68 | 154 | 0.0 | 0.0 | 0.00 | 0.65 | 0.00 | 96 | 1015.7 |
| 20260831055507 | 68 | 154 | 0.0 | 0.0 | 0.00 | 0.65 | 0.00 | 96 | 1015.6 |
| 20260831055006 | 69 | 154 | 0.0 | 0.0 | 0.00 | 0.65 | 0.00 | 96 | 1015.6 |
| 20260831054506 | 68 | 154 | 0.0 | 0.0 | 0.00 | 0.65 | 0.00 | 96 | 1015.6 |
| 20260831054006 | 69 | 154 | 0.0 | 0.0 | 0.00 | 0.65 | 0.00 | 96 | 1015.4 |
| 20260831053504 | 69 | 154 | 0.0 | 0.0 | 0.00 | 0.65 | 0.00 | 96 | 1015.4 |
| 20260831053004 | 69 | 154 | 0.0 | 0.0 | 0.00 | 0.65 | 0.00 | 96 | 1015.4 |
| 20260831052503 | 69 | 154 | 0.0 | 0.0 | 0.00 | 0.65 | 0.00 | 96 | 1015.3 |
| 20260831052001 | 69 | 154 | 0.0 | 0.0 | 0.00 | 0.65 | 0.00 | 96 | 1015.3 |
| 20260831051601 | 69 | 154 | 0.0 | 0.0 | 0.00 | 0.65 | 0.00 | 96 | 1015.3 |
| 20260831051059 | 69 | 154 | 0.0 | 0.0 | 0.00 | 0.65 | 0.00 | 96 | 1015.3 |
| 20260831050558 | 69 | 154 | 0.0 | 0.0 | 0.00 | 0.65 | 0.00 | 96 | 1015.3 |
| 20260831050058 | 70 | 154 | 0.0 | 0.0 | 0.00 | 0.65 | 0.00 | 96 | 1015.3 |
| 20260831045557 | 70 | 154 | 0.0 | 0.0 | 0.00 | 0.65 | 0.00 | 96 | 1015.3 |
| 20260831045057 | 70 | 154 | 0.0 | 0.0 | 0.00 | 0.65 | 0.00 | 96 | 1015.1 |
| 20260831044558 | 70 | 154 | 0.0 | 0.0 | 0.00 | 0.65 | 0.00 | 96 | 1015.2 |
| 20260831044054 | 70 | 152 | 0.0 | 0.0 | 0.01 | 0.65 | 0.00 | 96 | 1015.2 |
| 20260831043554 | 70 | 152 | 0.0 | 0.0 | 0.11 | 0.65 | 0.00 | 96 | 1015.1 |
| 20260831043053 | 70 | 152 | 0.0 | 0.0 | 0.20 | 0.65 | 0.00 | 96 | 1015.2 |
| 20260831042555 | 70 | 152 | 0.0 | 0.0 | 0.31 | 0.65 | 0.00 | 96 | 1015.1 |
| 20260831042051 | 70 | 152 | 0.0 | 0.0 | 0.36 | 0.65 | 0.00 | 96 | 1015.2 |
| 20260831041559 | 70 | 152 | 0.0 | 0.0 | 0.41 | 0.65 | 0.00 | 96 | 1015.1 |
| 20260831041053 | 70 | 152 | 0.0 | 0.0 | 0.46 | 0.65 | 0.00 | 96 | 1015.1 |
| 20260831040548 | 70 | 152 | 0.0 | 0.0 | 0.53 | 0.65 | 0.00 | 96 | 1015.2 |
| 20260831040046 | 70 | 152 | 0.0 | 0.0 | 0.56 | 0.65 | 0.00 | 95 | 1015.0 |
| 20260831035647 | 70 | 152 | 0.0 | 0.0 | 0.57 | 0.65 | 0.65 | 95 | 1015.0 |
| 20260831035046 | 70 | 152 | 0.0 | 4.0 | 0.59 | 0.65 | 0.65 | 95 | 1015.0 |
| 20260831034546 | 71 | 152 | 0.0 | 4.0 | 0.61 | 0.65 | 0.65 | 95 | 1015.0 |
| 20260831034046 | 71 | 323 | 0.0 | 1.0 | 0.59 | 0.63 | 0.63 | 96 | 1015.2 |
| 20260831033545 | 71 | 306 | 0.0 | 1.0 | 0.51 | 0.53 | 0.53 | 95 | 1015.1 |
| 20260831033046 | 71 | 185 | 0.0 | 1.0 | 0.44 | 0.45 | 0.45 | 95 | 1015.3 |
| 20260831032546 | 71 | 185 | 0.0 | 1.0 | 0.33 | 0.33 | 0.33 | 95 | 1015.2 |
| 20260831032045 | 71 | 185 | 0.0 | 1.0 | 0.28 | 0.28 | 0.28 | 94 | 1015.2 |
| 20260831031544 | 71 | 184 | 0.0 | 1.0 | 0.24 | 0.24 | 0.24 | 94 | 1015.2 |
| 20260831031047 | 71 | 184 | 0.0 | 0.0 | 0.18 | 0.18 | 0.18 | 94 | 1015.3 |
| 20260831030546 | 71 | 183 | 0.0 | 0.0 | 0.11 | 0.11 | 0.11 | 93 | 1015.2 |
| 20260831030043 | 72 | 183 | 0.0 | 0.0 | 0.09 | 0.09 | 0.09 | 93 | 1015.4 |
| 20260831025542 | 72 | 183 | 0.0 | 0.0 | 0.07 | 0.07 | 0.07 | 93 | 1015.4 |
| 20260831025042 | 72 | 183 | 0.0 | 0.0 | 0.05 | 0.05 | 0.05 | 92 | 1015.2 |
| 20260831024543 | 72 | 183 | 0.0 | 0.0 | 0.04 | 0.04 | 0.04 | 92 | 1015.2 |
| 20260831024042 | 72 | 183 | 0.0 | 0.0 | 0.04 | 0.04 | 0.04 | 91 | 1015.2 |
| 20260831023540 | 72 | 183 | 0.0 | 1.0 | 0.02 | 0.02 | 0.02 | 91 | 1015.3 |
| 20260831023041 | 72 | 182 | 0.0 | 1.0 | 0.01 | 0.01 | 0.01 | 90 | 1015.3 |
| 20260831022540 | 72 | 212 | 0.0 | 1.0 | 0.00 | 0.00 | 0.00 | 90 | 1015.3 |
| 20260831022040 | 72 | 206 | 0.0 | 1.0 | 0.00 | 0.00 | 0.00 | 90 | 1015.2 |
| 20260831021541 | 72 | 207 | 0.0 | 1.0 | 0.00 | 0.00 | 0.00 | 90 | 1015.1 |
| 20260831021045 | 72 | 206 | 0.0 | 1.0 | 0.00 | 0.00 | 0.00 | 89 | 1015.2 |
| 20260831020540 | 72 | 207 | 0.0 | 2.0 | 0.00 | 0.00 | 0.00 | 89 | 1015.2 |
| 20260831020039 | 73 | 187 | 0.0 | 2.0 | 0.00 | 0.00 | 0.00 | 89 | 1015.2 |
| 20260831015539 | 73 | 202 | 0.0 | 1.0 | 0.00 | 0.00 | 0.00 | 89 | 1015.3 |
| 20260831015039 | 73 | 202 | 0.0 | 1.0 | 0.00 | 0.00 | 0.00 | 89 | 1015.3 |
| 20260831014555 | 73 | 186 | 0.0 | 1.0 | 0.00 | 0.00 | 0.00 | 88 | 1015.3 |
| 20260831014039 | 73 | 204 | 0.0 | 2.0 | 0.00 | 0.00 | 0.00 | 88 | 1015.3 |
| 20260831013538 | 73 | 197 | 0.0 | 2.0 | 0.00 | 0.00 | 0.00 | 88 | 1015.2 |
| 20260831013046 | 73 | 193 | 0.0 | 2.0 | 0.00 | 0.00 | 0.00 | 88 | 1015.3 |
| 20260831012538 | 73 | 200 | 0.0 | 2.0 | 0.00 | 0.00 | 0.00 | 88 | 1015.4 |
| 20260831012038 | 74 | 209 | 0.0 | 2.0 | 0.00 | 0.00 | 0.00 | 88 | 1015.3 |
| 20260831011538 | 74 | 197 | 0.0 | 2.0 | 0.00 | 0.00 | 0.00 | 87 | 1015.3 |
| 20260831011036 | 74 | 222 | 0.0 | 2.0 | 0.00 | 0.00 | 0.00 | 86 | 1015.3 |
| 20260831010536 | 74 | 199 | 0.0 | 5.0 | 0.00 | 0.00 | 0.00 | 86 | 1015.4 |
| 20260831010037 | 74 | 192 | 0.0 | 5.0 | 0.00 | 0.00 | 0.00 | 85 | 1015.3 |
| 20260831005537 | 74 | 204 | 0.0 | 5.0 | 0.00 | 0.00 | 0.00 | 85 | 1015.3 |
| 20260831005036 | 74 | 185 | 0.0 | 3.0 | 0.00 | 0.00 | 0.00 | 85 | 1015.3 |
| 20260831004539 | 74 | 197 | 0.0 | 3.0 | 0.00 | 0.00 | 0.00 | 85 | 1015.1 |
| 20260831004037 | 74 | 197 | 0.0 | 0.0 | 0.00 | 0.00 | 0.00 | 85 | 1015.1 |
| 20260831003536 | 74 | 195 | 0.0 | 1.0 | 0.00 | 0.00 | 0.00 | 85 | 1015.2 |
| 20260831003047 | 74 | 197 | 0.0 | 2.0 | 0.00 | 0.00 | 0.00 | 84 | 1015.1 |
| 20260831002540 | 74 | 195 | 0.0 | 4.0 | 0.00 | 0.00 | 0.00 | 83 | 1015.0 |
| 20260831002036 | 74 | 177 | 0.0 | 4.0 | 0.00 | 0.00 | 0.00 | 83 | 1015.0 |
| 20260831001546 | 75 | 193 | 0.0 | 4.0 | 0.00 | 0.00 | 0.00 | 83 | 1015.0 |
| 20260831001036 | 75 | 204 | 0.0 | 4.0 | 0.00 | 0.00 | 0.00 | 82 | 1014.9 |
| 20260831000536 | 75 | 180 | 0.0 | 4.0 | 0.00 | 0.00 | 0.00 | 82 | 1014.9 |
| 20260831000041 | 75 | 192 | 0.0 | 2.0 | 0.00 | 0.00 | 0.00 | 82 | 1014.9 |
| 20260830235538 | 75 | 190 | 0.0 | 2.0 | 0.00 | 0.00 | 0.00 | 81 | 1014.8 |
| 20260830235037 | 75 | 197 | 0.0 | 2.0 | 0.00 | 0.00 | 0.00 | 81 | 1014.8 |
| 20260830234534 | 75 | 185 | 0.0 | 1.0 | 0.00 | 0.00 | 0.00 | 80 | 1014.9 |
| 20260830234034 | 75 | 178 | 0.0 | 0.0 | 0.00 | 0.00 | 0.00 | 80 | 1014.8 |
| 20260830233533 | 75 | 202 | 0.0 | 0.0 | 0.00 | 0.00 | 0.00 | 79 | 1014.7 |
| 20260830233037 | 75 | 183 | 0.0 | 0.0 | 0.00 | 0.00 | 0.00 | 78 | 1014.8 |
| 20260830232536 | 75 | 199 | 0.0 | 0.0 | 0.00 | 0.00 | 0.00 | 78 | 1014.7 |
| 20260830232033 | 75 | 199 | 0.0 | 1.0 | 0.00 | 0.00 | 0.00 | 77 | 1014.9 |
| 20260830231534 | 75 | 189 | 0.0 | 1.0 | 0.00 | 0.00 | 0.00 | 77 | 1014.9 |
| 20260830231032 | 75 | 190 | 0.0 | 2.0 | 0.00 | 0.00 | 0.00 | 76 | 1014.8 |
| 20260830230531 | 75 | 195 | 0.0 | 2.0 | 0.00 | 0.00 | 0.00 | 76 | 1014.8 |
| 20260830230032 | 76 | 199 | 0.0 | 1.0 | 0.00 | 0.00 | 0.00 | 75 | 1014.8 |
| 20260830225531 | 76 | 196 | 0.0 | 0.0 | 0.00 | 0.00 | 0.00 | 74 | 1014.7 |
| 20260830225031 | 76 | 195 | 0.0 | 2.0 | 0.00 | 0.00 | 0.00 | 74 | 1014.8 |
| 20260830224531 | 76 | 197 | 0.0 | 2.0 | 0.00 | 0.00 | 0.00 | 73 | 1014.9 |
| 20260830224030 | 76 | 197 | 0.0 | 1.0 | 0.00 | 0.00 | 0.00 | 72 | 1014.9 |
| 20260830223531 | 76 | 200 | 0.0 | 4.0 | 0.00 | 0.00 | 0.00 | 72 | 1015.0 |
| 20260830223030 | 76 | 211 | 0.0 | 4.0 | 0.00 | 0.00 | 0.00 | 71 | 1015.0 |
| 20260830222528 | 76 | 205 | 0.0 | 2.0 | 0.00 | 0.00 | 0.00 | 70 | 1015.1 |
| 20260830222028 | 76 | 159 | 0.0 | 2.0 | 0.00 | 0.00 | 0.00 | 69 | 1015.2 |
| 20260830221528 | 76 | 194 | 0.0 | 2.0 | 0.00 | 0.00 | 0.00 | 69 | 1015.1 |
| 20260830221027 | 77 | 177 | 0.0 | 3.0 | 0.00 | 0.00 | 0.00 | 68 | 1015.1 |
| 20260830220528 | 77 | 200 | 0.0 | 3.0 | 0.00 | 0.00 | 0.00 | 68 | 1015.1 |
| 20260830220028 | 77 | 215 | 0.0 | 3.0 | 0.00 | 0.00 | 0.00 | 67 | 1015.2 |
| 20260830215528 | 77 | 195 | 0.0 | 3.0 | 0.00 | 0.00 | 0.00 | 67 | 1015.2 |
| 20260830215027 | 77 | 199 | 0.0 | 3.0 | 0.00 | 0.00 | 0.00 | 66 | 1015.2 |
| 20260830214539 | 77 | 208 | 0.0 | 3.0 | 0.00 | 0.00 | 0.00 | 65 | 1015.1 |
| 20260830214027 | 77 | 194 | 0.0 | 3.0 | 0.00 | 0.00 | 0.00 | 65 | 1015.2 |
| 20260830213526 | 78 | 209 | 0.0 | 2.0 | 0.00 | 0.00 | 0.00 | 65 | 1015.2 |
| 20260830213027 | 78 | 187 | 0.0 | 3.0 | 0.00 | 0.00 | 0.00 | 64 | 1015.2 |
| 20260830212526 | 78 | 213 | 0.0 | 3.0 | 0.00 | 0.00 | 0.00 | 63 | 1015.2 |
| 20260830212027 | 78 | 204 | 0.0 | 3.0 | 0.00 | 0.00 | 0.00 | 63 | 1015.3 |
| 20260830211529 | 78 | 145 | 0.0 | 3.0 | 0.00 | 0.00 | 0.00 | 62 | 1015.3 |
| 20260830211025 | 78 | 204 | 0.0 | 2.0 | 0.00 | 0.00 | 0.00 | 62 | 1015.3 |
| 20260830210525 | 78 | 171 | 0.0 | 2.0 | 0.00 | 0.00 | 0.00 | 61 | 1015.2 |
| 20260830210031 | 79 | 197 | 0.0 | 2.0 | 0.00 | 0.00 | 0.00 | 60 | 1015.2 |
| 20260830205530 | 79 | 197 | 0.0 | 3.0 | 0.00 | 0.00 | 0.00 | 60 | 1015.2 |
| 20260830205024 | 79 | 198 | 0.0 | 3.0 | 0.00 | 0.00 | 0.00 | 58 | 1015.2 |
| 20260830204529 | 79 | 201 | 0.0 | 3.0 | 0.00 | 0.00 | 0.00 | 58 | 1015.2 |
| 20260830204025 | 79 | 195 | 0.0 | 3.0 | 0.00 | 0.00 | 0.00 | 58 | 1015.3 |
| 20260830203525 | 80 | 188 | 0.0 | 2.0 | 0.00 | 0.00 | 0.00 | 58 | 1015.4 |
| 20260830203027 | 80 | 209 | 0.0 | 4.0 | 0.00 | 0.00 | 0.00 | 57 | 1015.4 |
| 20260830202525 | 80 | 190 | 0.0 | 5.0 | 0.00 | 0.00 | 0.00 | 55 | 1015.4 |
| 20260830202026 | 81 | 209 | 1.0 | 5.0 | 0.00 | 0.00 | 0.00 | 53 | 1015.3 |
| 20260830201523 | 81 | 202 | 1.0 | 5.0 | 0.00 | 0.00 | 0.00 | 54 | 1015.3 |
| 20260830201026 | 82 | 195 | 0.0 | 3.0 | 0.00 | 0.00 | 0.00 | 56 | 1015.2 |
| 20260830200523 | 82 | 173 | 0.0 | 3.0 | 0.00 | 0.00 | 0.00 | 55 | 1015.2 |
| 20260830200022 | 82 | 204 | 0.0 | 2.0 | 0.00 | 0.00 | 0.00 | 55 | 1015.3 |
| 20260830195523 | 82 | 226 | 0.0 | 4.0 | 0.00 | 0.00 | 0.00 | 55 | 1015.4 |
| 20260830195021 | 83 | 188 | 1.0 | 4.0 | 0.00 | 0.00 | 0.00 | 53 | 1015.4 |
| 20260830194524 | 83 | 190 | 0.0 | 3.0 | 0.00 | 0.00 | 0.00 | 53 | 1015.4 |
| 20260830194020 | 83 | 169 | 0.0 | 3.0 | 0.00 | 0.00 | 0.00 | 53 | 1015.6 |
| 20260830193519 | 83 | 195 | 0.0 | 3.0 | 0.00 | 0.00 | 0.00 | 54 | 1015.6 |
| 20260830193019 | 84 | 178 | 0.0 | 3.0 | 0.00 | 0.00 | 0.00 | 51 | 1015.7 |
| 20260830192517 | 84 | 218 | 0.0 | 6.0 | 0.00 | 0.00 | 0.00 | 51 | 1015.9 |
| 20260830192016 | 84 | 182 | 1.0 | 6.0 | 0.00 | 0.00 | 0.00 | 51 | 1015.8 |
| 20260830191520 | 83 | 150 | 0.0 | 3.0 | 0.00 | 0.00 | 0.00 | 54 | 1016.0 |
| 20260830191013 | 82 | 216 | 0.0 | 3.0 | 0.00 | 0.00 | 0.00 | 54 | 1016.2 |
| 20260830190513 | 82 | 203 | 0.0 | 2.0 | 0.00 | 0.00 | 0.00 | 54 | 1016.2 |
| 20260830190012 | 82 | 204 | 0.0 | 2.0 | 0.00 | 0.00 | 0.00 | 53 | 1016.2 |
| 20260830185514 | 83 | 183 | 0.0 | 5.0 | 0.00 | 0.00 | 0.00 | 54 | 1016.2 |
| 20260830185011 | 83 | 194 | 0.0 | 5.0 | 0.00 | 0.00 | 0.00 | 53 | 1016.4 |
| 20260830184509 | 84 | 206 | 0.0 | 5.0 | 0.00 | 0.00 | 0.00 | 51 | 1016.4 |
| 20260830184008 | 84 | 199 | 0.0 | 4.0 | 0.00 | 0.00 | 0.00 | 52 | 1016.4 |
| 20260830183507 | 85 | 211 | 0.0 | 3.0 | 0.00 | 0.00 | 0.00 | 52 | 1016.3 |
| 20260830183006 | 85 | 230 | 1.0 | 3.0 | 0.00 | 0.00 | 0.00 | 50 | 1016.4 |
| 20260830182505 | 86 | 188 | 1.0 | 5.0 | 0.00 | 0.00 | 0.00 | 51 | 1016.3 |
| 20260830182004 | 85 | 204 | 1.0 | 5.0 | 0.00 | 0.00 | 0.00 | 50 | 1016.4 |
| 20260830181502 | 86 | 204 | 1.0 | 3.0 | 0.00 | 0.00 | 0.00 | 51 | 1016.5 |
| 20260830181002 | 86 | 207 | 0.0 | 5.0 | 0.00 | 0.00 | 0.00 | 53 | 1016.7 |
| 20260830180600 | 86 | 195 | 0.0 | 5.0 | 0.00 | 0.00 | 0.00 | 54 | 1016.8 |
| 20260830180101 | 85 | 202 | 1.0 | 5.0 | 0.00 | 0.00 | 0.00 | 52 | 1016.8 |
| 20260830180002 | 85 | 157 | 1.0 | 5.0 | 0.00 | 0.00 | 0.00 | 51 | 1016.8 |
| 20260830175559 | 85 | 180 | 0.0 | 4.0 | 0.00 | 0.00 | 0.00 | 51 | 1016.9 |
| 20260830175102 | 85 | 199 | 1.0 | 5.0 | 0.00 | 0.00 | 0.00 | 51 | 1016.9 |
| 20260830174559 | 85 | 187 | 0.0 | 5.0 | 0.00 | 0.00 | 0.00 | 51 | 1017.0 |
| 20260830174058 | 86 | 209 | 0.0 | 3.0 | 0.00 | 0.00 | 0.00 | 50 | 1016.9 |
| 20260830173559 | 86 | 207 | 1.0 | 6.0 | 0.00 | 0.00 | 0.00 | 50 | 1016.9 |
| 20260830173058 | 86 | 178 | 2.0 | 6.0 | 0.00 | 0.00 | 0.00 | 50 | 1017.0 |
| 20260830172601 | 86 | 316 | 1.0 | 6.0 | 0.00 | 0.00 | 0.00 | 51 | 1017.1 |
| 20260830172055 | 85 | 165 | 0.0 | 5.0 | 0.00 | 0.00 | 0.00 | 52 | 1017.0 |
| 20260830171606 | 85 | 212 | 0.0 | 4.0 | 0.00 | 0.00 | 0.00 | 53 | 1017.2 |
| 20260830171053 | 84 | 259 | 1.0 | 5.0 | 0.00 | 0.00 | 0.00 | 50 | 1017.1 |
| 20260830170553 | 84 | 7 | 0.0 | 6.0 | 0.00 | 0.00 | 0.00 | 53 | 1017.1 |
| 20260830170052 | 83 | 169 | 0.0 | 6.0 | 0.00 | 0.00 | 0.00 | 54 | 1017.2 |
| 20260830165551 | 84 | 360 | 1.0 | 5.0 | 0.00 | 0.00 | 0.00 | 52 | 1017.3 |
| 20260830165050 | 84 | 9 | 0.0 | 3.0 | 0.00 | 0.00 | 0.00 | 54 | 1017.4 |
| 20260830164600 | 83 | 213 | 1.0 | 6.0 | 0.00 | 0.00 | 0.00 | 54 | 1017.4 |
| 20260830164048 | 82 | 203 | 1.0 | 6.0 | 0.00 | 0.00 | 0.00 | 52 | 1017.4 |
| 20260830163548 | 82 | 10 | 1.0 | 8.0 | 0.00 | 0.00 | 0.00 | 54 | 1017.4 |
| 20260830163048 | 82 | 2 | 0.0 | 8.0 | 0.00 | 0.00 | 0.00 | 56 | 1017.4 |
| 20260830162547 | 82 | 18 | 0.0 | 8.0 | 0.00 | 0.00 | 0.00 | 57 | 1017.5 |
| 20260830162048 | 82 | 221 | 1.0 | 5.0 | 0.00 | 0.00 | 0.00 | 55 | 1017.4 |
| 20260830161545 | 82 | 21 | 0.0 | 5.0 | 0.00 | 0.00 | 0.00 | 58 | 1017.5 |
| 20260830161044 | 82 | 159 | 0.0 | 4.0 | 0.00 | 0.00 | 0.00 | 56 | 1017.5 |
| 20260830160543 | 82 | 166 | 0.0 | 5.0 | 0.00 | 0.00 | 0.00 | 57 | 1017.6 |
| 20260830160042 | 81 | 254 | 0.0 | 5.0 | 0.00 | 0.00 | 0.00 | 56 | 1017.7 |
| 20260830155541 | 81 | 164 | 1.0 | 5.0 | 0.00 | 0.00 | 0.00 | 55 | 1017.7 |
| 20260830155041 | 81 | 325 | 0.0 | 4.0 | 0.00 | 0.00 | 0.00 | 56 | 1017.8 |
| 20260830154539 | 80 | 211 | 0.0 | 4.0 | 0.00 | 0.00 | 0.00 | 57 | 1017.8 |
| 20260830154038 | 80 | 203 | 0.0 | 4.0 | 0.00 | 0.00 | 0.00 | 58 | 1017.9 |
| 20260830153537 | 80 | 149 | 1.0 | 5.0 | 0.00 | 0.00 | 0.00 | 57 | 1017.9 |
| 20260830153035 | 80 | 164 | 1.0 | 5.0 | 0.00 | 0.00 | 0.00 | 57 | 1018.0 |
| 20260830152534 | 79 | 180 | 0.0 | 5.0 | 0.00 | 0.00 | 0.00 | 58 | 1018.1 |
| 20260830152033 | 79 | 37 | 0.0 | 5.0 | 0.00 | 0.00 | 0.00 | 60 | 1018.1 |
| 20260830151532 | 79 | 24 | 0.0 | 5.0 | 0.00 | 0.00 | 0.00 | 60 | 1018.2 |
| 20260830151031 | 78 | 172 | 0.0 | 5.0 | 0.00 | 0.00 | 0.00 | 60 | 1018.3 |
| 20260830150530 | 78 | 207 | 0.0 | 4.0 | 0.00 | 0.00 | 0.00 | 60 | 1018.3 |
| 20260830150029 | 78 | 8 | 0.0 | 4.0 | 0.00 | 0.00 | 0.00 | 60 | 1018.3 |
| 20260830145531 | 78 | 195 | 0.0 | 4.0 | 0.00 | 0.00 | 0.00 | 62 | 1018.4 |
| 20260830145026 | 77 | 198 | 0.0 | 3.0 | 0.00 | 0.00 | 0.00 | 61 | 1018.5 |
| 20260830144525 | 77 | 189 | 0.0 | 4.0 | 0.00 | 0.00 | 0.00 | 64 | 1018.6 |
| 20260830144024 | 77 | 190 | 0.0 | 4.0 | 0.00 | 0.00 | 0.00 | 64 | 1018.6 |
| 20260830143523 | 77 | 292 | 0.0 | 3.0 | 0.00 | 0.00 | 0.00 | 64 | 1018.7 |
| 20260830143022 | 76 | 206 | 0.0 | 2.0 | 0.00 | 0.00 | 0.00 | 67 | 1018.8 |
| 20260830142521 | 76 | 195 | 0.0 | 3.0 | 0.00 | 0.00 | 0.00 | 67 | 1018.8 |
| 20260830142020 | 75 | 182 | 0.0 | 3.0 | 0.00 | 0.00 | 0.00 | 66 | 1018.8 |
| 20260830141532 | 75 | 185 | 0.0 | 3.0 | 0.00 | 0.00 | 0.00 | 66 | 1018.8 |
| 20260830141018 | 75 | 194 | 0.0 | 3.0 | 0.00 | 0.00 | 0.00 | 68 | 1018.7 |
| 20260830140516 | 74 | 199 | 0.0 | 3.0 | 0.00 | 0.00 | 0.00 | 68 | 1018.8 |
| 20260830140015 | 74 | 193 | 1.0 | 4.0 | 0.00 | 0.00 | 0.00 | 68 | 1018.8 |
| 20260830135515 | 74 | 6 | 0.0 | 6.0 | 0.00 | 0.00 | 0.00 | 69 | 1018.9 |
| 20260830135015 | 74 | 208 | 1.0 | 6.0 | 0.00 | 0.00 | 0.00 | 68 | 1018.9 |
| 20260830134522 | 74 | 150 | 0.0 | 2.0 | 0.00 | 0.00 | 0.00 | 69 | 1019.0 |
| 20260830134012 | 73 | 18 | 0.0 | 2.0 | 0.00 | 0.00 | 0.00 | 69 | 1019.0 |
| 20260830133511 | 73 | 344 | 0.0 | 2.0 | 0.00 | 0.00 | 0.00 | 70 | 1019.1 |
| 20260830133009 | 73 | 222 | 0.0 | 1.0 | 0.00 | 0.00 | 0.00 | 72 | 1019.1 |
| 20260830132511 | 73 | 208 | 0.0 | 1.0 | 0.00 | 0.00 | 0.00 | 73 | 1019.2 |
| 20260830132007 | 72 | 207 | 0.0 | 1.0 | 0.00 | 0.00 | 0.00 | 72 | 1019.3 |
| 20260830131507 | 72 | 201 | 0.0 | 1.0 | 0.00 | 0.00 | 0.00 | 74 | 1019.3 |
| 20260830131009 | 72 | 201 | 0.0 | 2.0 | 0.00 | 0.00 | 0.00 | 74 | 1019.3 |
| 20260830130507 | 72 | 199 | 0.0 | 2.0 | 0.00 | 0.00 | 0.00 | 74 | 1019.3 |
| 20260830130011 | 71 | 205 | 0.0 | 0.0 | 0.00 | 0.00 | 0.00 | 74 | 1019.3 |
| 20260830125503 | 71 | 207 | 0.0 | 1.0 | 0.00 | 0.00 | 0.00 | 75 | 1019.4 |
| 20260830125002 | 71 | 208 | 0.0 | 1.0 | 0.00 | 0.00 | 0.00 | 75 | 1019.4 |
| 20260830124501 | 70 | 193 | 0.0 | 1.0 | 0.00 | 0.00 | 0.00 | 77 | 1019.5 |
| 20260830124100 | 70 | 192 | 0.0 | 1.0 | 0.00 | 0.00 | 0.00 | 78 | 1019.6 |
| 20260830123558 | 69 | 202 | 0.0 | 0.0 | 0.00 | 0.00 | 0.00 | 78 | 1019.6 |
| 20260830123125 | 69 | 202 | 0.0 | 1.0 | 0.00 | 0.00 | 0.00 | 79 | 1019.7 |
| 20260830122557 | 69 | 207 | 0.0 | 3.0 | 0.00 | 0.00 | 0.00 | 79 | 1019.6 |
| 20260830122100 | 68 | 6 | 0.0 | 3.0 | 0.00 | 0.00 | 0.00 | 81 | 1019.6 |
| 20260830121602 | 68 | 187 | 0.0 | 0.0 | 0.00 | 0.00 | 0.00 | 81 | 1019.6 |
| 20260830121057 | 68 | 191 | 0.0 | 0.0 | 0.00 | 0.00 | 0.00 | 83 | 1019.6 |
| 20260830120552 | 67 | 191 | 0.0 | 0.0 | 0.00 | 0.00 | 0.00 | 83 | 1019.5 |
| 20260830120055 | 67 | 198 | 0.0 | 0.0 | 0.00 | 0.00 | 0.00 | 83 | 1019.6 |
| 20260830115551 | 67 | 197 | 0.0 | 0.0 | 0.00 | 0.00 | 0.00 | 84 | 1019.6 |
| 20260830115053 | 66 | 200 | 0.0 | 0.0 | 0.00 | 0.00 | 0.00 | 85 | 1019.5 |
| 20260830114601 | 66 | 200 | 0.0 | 0.0 | 0.00 | 0.00 | 0.00 | 85 | 1019.5 |
| 20260830114047 | 66 | 165 | 0.0 | 0.0 | 0.00 | 0.00 | 0.00 | 86 | 1019.6 |
| 20260830113546 | 66 | 199 | 0.0 | 1.0 | 0.00 | 0.00 | 0.00 | 86 | 1019.6 |
| 20260830113045 | 65 | 193 | 0.0 | 1.0 | 0.00 | 0.00 | 0.00 | 86 | 1019.5 |
| 20260830112544 | 65 | 46 | 0.0 | 1.0 | 0.00 | 0.00 | 0.00 | 86 | 1019.5 |
| 20260830112043 | 65 | 49 | 0.0 | 0.0 | 0.00 | 0.00 | 0.00 | 87 | 1019.5 |
| 20260830111543 | 65 | 49 | 0.0 | 0.0 | 0.00 | 0.00 | 0.00 | 87 | 1019.5 |
| 20260830111042 | 65 | 34 | 0.0 | 0.0 | 0.00 | 0.00 | 0.00 | 87 | 1019.4 |
| 20260830110541 | 65 | 34 | 0.0 | 0.0 | 0.00 | 0.00 | 0.00 | 87 | 1019.3 |
| 20260830110040 | 64 | 34 | 0.0 | 1.0 | 0.00 | 0.00 | 0.00 | 87 | 1019.3 |
| 20260830105542 | 64 | 34 | 0.0 | 1.0 | 0.00 | 0.00 | 0.00 | 87 | 1019.3 |
| 20260830105037 | 64 | 36 | 0.0 | 0.0 | 0.00 | 0.00 | 0.00 | 87 | 1019.3 |
| 20260830104546 | 64 | 31 | 0.0 | 0.0 | 0.00 | 0.00 | 0.00 | 88 | 1019.5 |
| 20260830104036 | 63 | 31 | 0.0 | 0.0 | 0.00 | 0.00 | 0.00 | 88 | 1019.5 |
| 20260830103539 | 63 | 36 | 0.0 | 0.0 | 0.00 | 0.00 | 0.00 | 88 | 1019.4 |